Terminal Aerodrome Forecast
Issued by NWS

Home | Current Version | Previous Version | Text Only | Print | Product List | Glossary On
Versions: 1 2 3 4 5 6 7 8 9 10 11 12 13 14 15 16 17 18 19 20 21 22 23 24 25 26 27 28 29
232
FTUS46 KMTR 252124 AAC
TAFSFO
TAF AMD
KSFO 252124Z 2521/2624 30014KT P6SM FEW012
     FM260330 28011KT P6SM FEW008 BKN010
     FM260800 28006KT P6SM OVC008
     FM261800 28014KT P6SM FEW008=

USA.gov is the U.S. government's official web portal to all federal, state and local government web resources and services.